| time (UTC) | temp C | wind direction | speed KPH | gust KPH | rain 1hr cm | rain 24hr cm | rain mn cm | humidity % | barometer mb |
| 20260509192522 | 14 | 328 | 4.8 | 9.7 | 0.15 | 0.18 | 0.18 | 96 | 1017.1 |
| 20260509191541 | 14 | 332 | 3.2 | 8.0 | 0.10 | 0.13 | 0.13 | 95 | 1017.2 |
| 20260509190521 | 14 | 347 | 3.2 | 9.7 | 0.05 | 0.08 | 0.08 | 95 | 1017.2 |
| 20260509185541 | 14 | 351 | 3.2 | 3.2 | 0.03 | 0.05 | 0.05 | 94 | 1017.1 |
| 20260509184520 | 15 | 338 | 3.2 | 6.4 | 0.00 | 0.03 | 0.03 | 94 | 1017.0 |
| 20260509183521 | 15 | 328 | 3.2 | 4.8 | 0.00 | 0.03 | 0.03 | 94 | 1016.9 |
| 20260509182521 | 15 | 332 | 3.2 | 6.4 | 0.00 | 0.03 | 0.03 | 94 | 1016.8 |
| 20260509181540 | 15 | 333 | 3.2 | 9.7 | 0.00 | 0.03 | 0.03 | 94 | 1016.8 |
| 20260509180521 | 15 | 333 | 3.2 | 3.2 | 0.00 | 0.03 | 0.03 | 93 | 1016.7 |
| 20260509175541 | 15 | 337 | 3.2 | 4.8 | 0.00 | 0.03 | 0.03 | 93 | 1016.6 |
| 20260509174520 | 15 | 330 | 3.2 | 4.8 | 0.00 | 0.03 | 0.03 | 93 | 1016.4 |
| 20260509173521 | 16 | 345 | 3.2 | 4.8 | 0.00 | 0.03 | 0.03 | 92 | 1016.4 |
| 20260509172520 | 16 | 343 | 3.2 | 3.2 | 0.00 | 0.03 | 0.03 | 91 | 1016.4 |
| 20260509171520 | 17 | 1 | 3.2 | 6.4 | 0.00 | 0.03 | 0.03 | 91 | 1016.3 |
| 20260509170541 | 17 | 355 | 3.2 | 4.8 | 0.00 | 0.03 | 0.03 | 90 | 1016.2 |
| 20260509165520 | 17 | 347 | 1.6 | 3.2 | 0.00 | 0.03 | 0.03 | 88 | 1016.2 |
| 20260509164520 | 17 | 346 | 1.6 | 1.6 | 0.00 | 0.03 | 0.03 | 87 | 1016.1 |
| 20260509163519 | 17 | 343 | 1.6 | 6.4 | 0.00 | 0.03 | 0.03 | 86 | 1016.1 |
| 20260509162519 | 17 | 348 | 1.6 | 1.6 | 0.00 | 0.03 | 0.03 | 86 | 1016.1 |
| 20260509161519 | 17 | 345 | 1.6 | 3.2 | 0.00 | 0.03 | 0.03 | 86 | 1016.1 |
| 20260509160539 | 17 | 8 | 1.6 | 1.6 | 0.00 | 0.03 | 0.03 | 86 | 1016.1 |
| 20260509155519 | 17 | 359 | 1.6 | 1.6 | 0.00 | 0.03 | 0.03 | 86 | 1016.1 |
| 20260509154519 | 17 | 29 | 1.6 | 3.2 | 0.00 | 0.03 | 0.03 | 85 | 1016.0 |
| 20260509153519 | 17 | 25 | 1.6 | 3.2 | 0.00 | 0.03 | 0.03 | 85 | 1016.1 |
| 20260509152539 | 17 | 22 | 1.6 | 3.2 | 0.00 | 0.03 | 0.03 | 85 | 1016.1 |
| 20260509151519 | 17 | 27 | 1.6 | 3.2 | 0.00 | 0.03 | 0.03 | 84 | 1016.1 |
| 20260509150519 | 17 | 12 | 1.6 | 3.2 | 0.00 | 0.03 | 0.03 | 83 | 1016.2 |
| 20260509145519 | 17 | 17 | 1.6 | 3.2 | 0.00 | 0.03 | 0.03 | 83 | 1016.2 |
| 20260509144519 | 17 | 30 | 1.6 | 3.2 | 0.00 | 0.03 | 0.03 | 83 | 1016.3 |
| 20260509143519 | 17 | 38 | 3.2 | 4.8 | 0.00 | 0.03 | 0.03 | 83 | 1016.3 |
| 20260509142518 | 18 | 40 | 3.2 | 6.4 | 0.00 | 0.03 | 0.03 | 81 | 1016.3 |
| 20260509141519 | 18 | 49 | 1.6 | 1.6 | 0.00 | 0.03 | 0.03 | 82 | 1016.4 |
| 20260509140541 | 18 | 31 | 1.6 | 1.6 | 0.00 | 0.03 | 0.03 | 82 | 1016.4 |
| 20260509135518 | 18 | 48 | 1.6 | 3.2 | 0.00 | 0.05 | 0.03 | 82 | 1016.4 |
| 20260509134519 | 18 | 38 | 1.6 | 3.2 | 0.00 | 0.08 | 0.03 | 83 | 1016.5 |
| 20260509133518 | 17 | 41 | 1.6 | 4.8 | 0.00 | 0.23 | 0.03 | 83 | 1016.5 |
| 20260509132518 | 17 | 57 | 1.6 | 1.6 | 0.00 | 0.56 | 0.03 | 84 | 1016.6 |
| 20260509131518 | 18 | 47 | 1.6 | 3.2 | 0.00 | 1.12 | 0.03 | 83 | 1016.7 |
| 20260509130518 | 18 | 46 | 1.6 | 4.8 | 0.00 | 1.12 | 0.03 | 82 | 1016.8 |
| 20260509125518 | 18 | 54 | 1.6 | 4.8 | 0.00 | 1.12 | 0.03 | 83 | 1017.0 |
| 20260509124537 | 18 | 58 | 1.6 | 3.2 | 0.00 | 1.12 | 0.03 | 82 | 1017.0 |
| 20260509123518 | 18 | 66 | 3.2 | 6.4 | 0.00 | 1.12 | 0.03 | 83 | 1017.1 |
| 20260509122518 | 18 | 54 | 3.2 | 6.4 | 0.00 | 1.12 | 0.03 | 82 | 1017.1 |
| 20260509121517 | 18 | 54 | 1.6 | 1.6 | 0.00 | 1.12 | 0.03 | 83 | 1017.1 |
| 20260509120518 | 18 | 49 | 1.6 | 4.8 | 0.00 | 1.12 | 0.03 | 81 | 1017.1 |
| 20260509115540 | 18 | 63 | 1.6 | 8.0 | 0.00 | 1.12 | 0.03 | 81 | 1017.1 |
| 20260509114517 | 19 | 56 | 1.6 | 6.4 | 0.00 | 1.12 | 0.03 | 81 | 1017.2 |
| 20260509113518 | 18 | 84 | 1.6 | 3.2 | 0.00 | 1.12 | 0.03 | 82 | 1017.3 |
| 20260509112517 | 18 | 64 | 3.2 | 6.4 | 0.00 | 1.12 | 0.03 | 83 | 1017.2 |
| 20260509111517 | 17 | 79 | 1.6 | 3.2 | 0.00 | 1.12 | 0.03 | 87 | 1017.3 |
| 20260509110517 | 17 | 86 | 3.2 | 6.4 | 0.00 | 1.12 | 0.03 | 85 | 1017.4 |
| 20260509105516 | 17 | 69 | 3.2 | 6.4 | 0.00 | 1.12 | 0.03 | 85 | 1017.4 |
| 20260509104519 | 17 | 82 | 3.2 | 4.8 | 0.00 | 1.12 | 0.03 | 85 | 1017.4 |
| 20260509103519 | 17 | 69 | 1.6 | 3.2 | 0.00 | 1.12 | 0.03 | 85 | 1017.4 |
| 20260509102519 | 17 | 54 | 1.6 | 3.2 | 0.00 | 1.12 | 0.03 | 86 | 1017.4 |
| 20260509101517 | 17 | 51 | 1.6 | 3.2 | 0.00 | 1.12 | 0.03 | 85 | 1017.4 |
| 20260509100519 | 17 | 50 | 3.2 | 4.8 | 0.00 | 1.12 | 0.03 | 85 | 1017.4 |
| 20260509095516 | 17 | 52 | 1.6 | 4.8 | 0.00 | 1.12 | 0.03 | 86 | 1017.5 |
| 20260509094537 | 17 | 40 | 1.6 | 4.8 | 0.00 | 1.12 | 0.03 | 86 | 1017.6 |
| 20260509093517 | 17 | 59 | 1.6 | 3.2 | 0.00 | 1.12 | 0.03 | 87 | 1017.6 |
| 20260509092517 | 17 | 55 | 1.6 | 3.2 | 0.00 | 1.12 | 0.03 | 87 | 1017.6 |
| 20260509091516 | 17 | 50 | 3.2 | 6.4 | 0.00 | 1.12 | 0.03 | 87 | 1017.6 |
| 20260509090524 | 17 | 40 | 3.2 | 6.4 | 0.00 | 1.12 | 0.03 | 88 | 1017.7 |
| 20260509085524 | 17 | 42 | 3.2 | 4.8 | 0.00 | 1.12 | 0.03 | 88 | 1017.5 |
| 20260509084524 | 17 | 48 | 1.6 | 3.2 | 0.00 | 1.12 | 0.03 | 92 | 1017.7 |
| 20260509083524 | 16 | 32 | 1.6 | 3.2 | 0.00 | 1.12 | 0.03 | 93 | 1017.8 |
| 20260509082525 | 16 | 46 | 1.6 | 4.8 | 0.00 | 1.12 | 0.03 | 94 | 1017.8 |
| 20260509081524 | 15 | 53 | 1.6 | 4.8 | 0.00 | 1.12 | 0.03 | 96 | 1017.8 |
| 20260509080522 | 15 | 57 | 1.6 | 3.2 | 0.00 | 1.12 | 0.03 | 98 | 1017.8 |
| 20260509075524 | 15 | 51 | 1.6 | 6.4 | 0.00 | 1.12 | 0.03 | 99 | 1017.9 |
| 20260509074603 | 15 | 47 | 1.6 | 4.8 | 0.00 | 1.12 | 0.03 | 100 | 1017.9 |
| 20260509073525 | 15 | 39 | 3.2 | 6.4 | 0.00 | 1.12 | 0.03 | 100 | 1017.8 |
| 20260509072528 | 15 | 15 | 1.6 | 3.2 | 0.00 | 1.12 | 0.03 | 100 | 1017.8 |
| 20260509071525 | 15 | 25 | 1.6 | 3.2 | 0.00 | 1.12 | 0.03 | 100 | 1017.8 |
| 20260509070525 | 14 | 353 | 1.6 | 3.2 | 0.00 | 1.12 | 0.03 | 100 | 1017.9 |
| 20260509065525 | 14 | 12 | 1.6 | 3.2 | 0.00 | 1.12 | 0.03 | 100 | 1017.8 |
| 20260509064528 | 14 | 358 | 3.2 | 3.2 | 0.00 | 1.12 | 0.03 | 100 | 1017.8 |
| 20260509063528 | 13 | 6 | 3.2 | 4.8 | 0.00 | 1.12 | 0.03 | 100 | 1017.7 |
| 20260509062526 | 13 | 4 | 3.2 | 3.2 | 0.00 | 1.12 | 0.03 | 100 | 1017.7 |
| 20260509061527 | 13 | 355 | 3.2 | 6.4 | 0.00 | 1.12 | 0.03 | 100 | 1017.7 |
| 20260509060525 | 13 | 359 | 1.6 | 4.8 | 0.00 | 1.12 | 0.03 | 100 | 1017.7 |
| 20260509055525 | 13 | 359 | 3.2 | 4.8 | 0.00 | 1.12 | 0.03 | 100 | 1017.7 |
| 20260509054524 | 13 | 359 | 3.2 | 3.2 | 0.00 | 1.12 | 0.03 | 100 | 1017.6 |
| 20260509053524 | 13 | 358 | 3.2 | 4.8 | 0.00 | 1.12 | 0.03 | 100 | 1017.6 |
| 20260509052525 | 13 | 350 | 3.2 | 8.0 | 0.00 | 1.12 | 0.03 | 100 | 1017.6 |
| 20260509051525 | 13 | 359 | 3.2 | 3.2 | 0.00 | 1.12 | 0.03 | 100 | 1017.6 |
| 20260509050524 | 13 | 1 | 3.2 | 4.8 | 0.00 | 1.12 | 0.03 | 100 | 1017.6 |
| 20260509045524 | 13 | 15 | 3.2 | 3.2 | 0.00 | 1.12 | 0.03 | 100 | 1017.6 |
| 20260509044525 | 13 | 358 | 3.2 | 3.2 | 0.00 | 1.12 | 0.03 | 100 | 1017.7 |
| 20260509043524 | 13 | 347 | 1.6 | 3.2 | 0.00 | 1.12 | 0.03 | 100 | 1017.7 |
| 20260509042524 | 13 | 358 | 1.6 | 3.2 | 0.00 | 1.12 | 0.03 | 100 | 1017.6 |
| 20260509041524 | 13 | 340 | 3.2 | 3.2 | 0.00 | 1.12 | 0.03 | 100 | 1017.6 |
| 20260509040525 | 13 | 333 | 3.2 | 3.2 | 0.03 | 1.12 | 0.03 | 100 | 1017.5 |
| 20260509035523 | 13 | 312 | 1.6 | 3.2 | 0.03 | 1.12 | 0.03 | 100 | 1017.5 |
| 20260509034525 | 13 | 319 | 1.6 | 3.2 | 0.03 | 1.12 | 0.03 | 100 | 1017.5 |
| 20260509033547 | 13 | 333 | 1.6 | 3.2 | 0.03 | 1.12 | 0.03 | 100 | 1017.4 |
| 20260509032525 | 13 | 320 | 1.6 | 3.2 | 0.03 | 1.12 | 0.03 | 100 | 1017.3 |
| 20260509031531 | 13 | 332 | 1.6 | 3.2 | 0.03 | 1.12 | 0.03 | 100 | 1017.2 |
| 20260509030525 | 13 | 306 | 0.0 | 1.6 | 0.00 | 1.09 | 0.00 | 100 | 1017.3 |
| 20260509025524 | 13 | 0.0 | 0.0 | 0.00 | 1.09 | 0.00 | 100 | 1017.2 | |
| 20260509024546 | 13 | 341 | 0.0 | 1.6 | 0.00 | 1.09 | 0.00 | 100 | 1017.1 |
| 20260509023525 | 13 | 317 | 0.0 | 1.6 | 0.00 | 1.09 | 0.00 | 100 | 1017.1 |
| 20260509022525 | 13 | 0.0 | 0.0 | 0.00 | 1.09 | 0.00 | 100 | 1017.2 | |
| 20260509021526 | 13 | 0.0 | 0.0 | 0.00 | 1.09 | 0.00 | 100 | 1017.2 | |
| 20260509020527 | 13 | 318 | 0.0 | 1.6 | 0.00 | 1.09 | 0.00 | 99 | 1017.1 |
| 20260509015606 | 13 | 30 | 0.0 | 1.6 | 0.00 | 1.09 | 0.00 | 99 | 1017.1 |
| 20260509014528 | 13 | 36 | 0.0 | 1.6 | 0.00 | 1.09 | 0.00 | 99 | 1017.1 |
| 20260509013524 | 13 | 35 | 0.0 | 1.6 | 0.00 | 1.09 | 0.00 | 99 | 1017.1 |
| 20260509012525 | 13 | 330 | 0.0 | 1.6 | 0.00 | 1.09 | 0.00 | 99 | 1017.1 |
| 20260509011526 | 14 | 0.0 | 0.0 | 0.00 | 1.09 | 0.00 | 99 | 1017.1 | |
| 20260509010524 | 14 | 0.0 | 0.0 | 0.00 | 1.09 | 0.00 | 99 | 1017.1 | |
| 20260509005525 | 14 | 0.0 | 0.0 | 0.00 | 1.09 | 0.00 | 99 | 1017.2 | |
| 20260509004526 | 14 | 0.0 | 0.0 | 0.00 | 1.09 | 0.00 | 99 | 1017.2 | |
| 20260509003525 | 14 | 339 | 0.0 | 1.6 | 0.00 | 1.09 | 0.00 | 99 | 1017.2 |
| 20260509002605 | 14 | 339 | 1.6 | 1.6 | 0.00 | 1.09 | 0.00 | 99 | 1017.2 |
| 20260509001524 | 13 | 342 | 0.0 | 1.6 | 0.00 | 1.09 | 0.00 | 99 | 1017.3 |
| 20260509000525 | 13 | 0.0 | 0.0 | 0.00 | 1.09 | 0.00 | 98 | 1017.4 | |
| 20260508235524 | 13 | 0.0 | 0.0 | 0.00 | 1.09 | 0.00 | 98 | 1017.5 | |
| 20260508234524 | 13 | 0.0 | 0.0 | 0.00 | 1.09 | 0.00 | 98 | 1017.5 | |
| 20260508233524 | 13 | 0.0 | 0.0 | 0.00 | 1.09 | 0.00 | 98 | 1017.5 | |
| 20260508232522 | 13 | 0.0 | 0.0 | 0.00 | 1.09 | 0.00 | 98 | 1017.5 | |
| 20260508231522 | 13 | 0.0 | 0.0 | 0.00 | 1.09 | 0.00 | 98 | 1017.5 | |
| 20260508230522 | 14 | 316 | 1.6 | 1.6 | 0.00 | 1.09 | 0.00 | 98 | 1017.5 |
| 20260508225521 | 14 | 0.0 | 1.6 | 0.00 | 1.09 | 0.00 | 98 | 1017.5 | |
| 20260508224520 | 14 | 0.0 | 0.0 | 0.00 | 1.09 | 0.00 | 97 | 1017.6 | |
| 20260508223520 | 13 | 0.0 | 0.0 | 0.00 | 1.09 | 0.00 | 97 | 1017.6 | |
| 20260508222520 | 13 | 0.0 | 0.0 | 0.00 | 1.09 | 0.00 | 97 | 1017.5 | |
| 20260508221518 | 13 | 0.0 | 0.0 | 0.00 | 1.09 | 0.00 | 97 | 1017.6 | |
| 20260508220520 | 13 | 0.0 | 0.0 | 0.00 | 1.09 | 0.00 | 97 | 1017.6 | |
| 20260508215517 | 13 | 0.0 | 0.0 | 0.00 | 1.09 | 0.00 | 97 | 1017.7 | |
| 20260508214537 | 14 | 0.0 | 0.0 | 0.00 | 1.09 | 0.00 | 97 | 1017.6 | |
| 20260508213537 | 14 | 0.0 | 0.0 | 0.00 | 1.09 | 0.00 | 97 | 1017.5 | |
| 20260508212537 | 14 | 0.0 | 0.0 | 0.00 | 1.09 | 0.00 | 97 | 1017.4 | |
| 20260508211533 | 14 | 0.0 | 0.0 | 0.00 | 1.09 | 0.00 | 97 | 1017.4 | |
| 20260508210525 | 15 | 0.0 | 0.0 | 0.00 | 1.09 | 0.00 | 97 | 1017.4 | |
| 20260508205525 | 15 | 0.0 | 0.0 | 0.00 | 1.09 | 1.09 | 97 | 1017.3 | |
| 20260508204525 | 15 | 6 | 1.6 | 1.6 | 0.00 | 1.09 | 1.09 | 97 | 1017.2 |
| 20260508203526 | 15 | 0.0 | 0.0 | 0.00 | 1.09 | 1.09 | 97 | 1017.3 | |
| 20260508202525 | 15 | 0.0 | 0.0 | 0.00 | 1.09 | 1.09 | 97 | 1017.4 | |
| 20260508201525 | 15 | 0.0 | 0.0 | 0.00 | 1.09 | 1.09 | 97 | 1017.5 | |
| 20260508200525 | 15 | 0.0 | 0.0 | 0.00 | 1.09 | 1.09 | 97 | 1017.5 | |
| 20260508195524 | 15 | 0.0 | 0.0 | 0.00 | 1.09 | 1.09 | 96 | 1017.5 | |
| 20260508194545 | 15 | 0.0 | 0.0 | 0.00 | 1.09 | 1.09 | 96 | 1017.6 | |
| 20260508193526 | 15 | 0.0 | 0.0 | 0.00 | 1.09 | 1.09 | 96 | 1017.5 |